Zurück zum Katalog

COSMOS 1317 DEB

AktivHEO
NORAD 14736·DEBRIS·🇷🇺 Russia

Gestartet Oct 31, 1981 von Plesetsk Cosmodrome

Loading…

Nächste Überflüge (nächste 24 Stunden)

TLE

AktuellSource: Space-Track

Epoche: Sep 14, 2026, 04:20 UTC

1 14736U 81108G   26257.18104617  .00000084  00000-0  00000-0 0  9991
2 14736  71.5756 113.1462 4610524 319.1957 263.3725  2.00251187235092

Verfolge COSMOS 1317 DEB in Echtzeit mit AllMySat

Download on the App Store